Location: Davidschlag
(48.4333°N, 14.2833°E)
Time: 15:20:08
(UTC+00:00)

Daily predictions for brighter satellites

Satellite Brightness Start Highest point End
(mag) Time Altitude Azimuth Time Altitude Azimuth Time Altitude Azimuth
NOSS 2-3 (E) 3.7 17:03:53 10° SSW 17:08:12 71° SE 17:13:21 10° NE
YAOGAN 6 3.2 17:06:06 10° S 17:09:32 61° W 17:13:01 10° NNW
Cosmos 1862 Rocket 3.5 17:05:15 10° N 17:09:37 76° E 17:13:59 10° SSE
Okean 1-7 4.0 17:06:20 10° NNE 17:10:01 26° ENE 17:13:40 10° SE
Envisat 4.0 17:05:03 10° S 17:10:01 55° W 17:15:02 10° NNW
STARLINK-1036 3.6 17:06:51 10° WSW 17:11:00 89° SSE 17:15:10 10° ENE
Lacrosse 5 3.3 17:08:12 10° S 17:11:52 20° SE 17:15:33 10° ENE
COSMO-SKYMED 1 2.6 17:09:06 10° NNE 17:13:28 71° ESE 17:17:47 10° S
STARLINK-81 4.2 17:10:34 10° W 17:14:29 48° N 17:18:24 10° ENE
Gbstr 26 Del rocket 3.7 17:11:14 10° SSW 17:14:52 35° SE 17:19:04 10° ENE
STARLINK-1048 3.9 17:12:14 10° W 17:15:31 43° NNW 17:18:49 10° ENE
USA 234 4.0 17:09:37 10° ENE 17:15:47 46° N 17:21:56 10° W
STARLINK-1044 3.7 17:11:51 10° WSW 17:15:59 87° NNW 17:20:09 10° ENE
STARLINK-54 4.2 17:12:27 10° W 17:16:21 46° N 17:20:15 10° ENE
STARLINK-1049 4.0 17:14:22 10° W 17:17:39 42° NNW 17:20:58 10° ENE
STARLINK-77 4.2 17:13:54 10° W 17:17:47 47° N 17:21:43 10° ENE
STARLINK-1022 4.5 17:14:07 10° SSW 17:17:51 33° SE 17:21:36 10° ENE
Cosmos 405 3.9 17:14:47 10° N 17:17:55 28° ENE 17:21:02 10° SE
STARLINK-1027 3.8 17:13:43 10° WSW 17:17:58 78° NNW 17:22:15 10° ENE
Cosmos 2369 Rocket 2.4 17:12:43 10° SSW 17:18:23 79° WNW 17:24:08 10° NNE
STARLINK-25 4.2 17:15:33 10° W 17:19:27 47° N 17:23:22 10° ENE
STARLINK-1051 4.0 17:16:32 10° W 17:19:49 42° NNW 17:23:08 10° ENE
STARLINK-71 4.3 17:17:27 10° W 17:21:21 45° N 17:25:14 10° ENE
Cosmos 1812 3.8 17:17:42 10° NNW 17:21:28 50° W 17:25:12 10° S
STARLINK-1028 4.0 17:18:11 10° W 17:21:28 42° N 17:24:46 10° ENE
STARLINK-79 4.3 17:18:54 10° W 17:22:48 46° N 17:26:42 10° ENE
STARLINK-1042 4.4 17:19:01 10° SSW 17:22:49 36° SE 17:26:38 10° ENE
NOSS 2-3 (D) 3.7 17:18:59 10° SW 17:23:20 86° SE 17:28:33 10° NE
Cosmos 1898 Rocket 3.8 17:18:27 10° NNW 17:23:28 46° ENE 17:28:27 10° SE
STARLINK-1021 4.0 17:20:23 10° W 17:23:40 41° N 17:26:58 10° ENE
Cosmos 44 Rocket 3.5 17:19:18 10° NNW 17:23:56 51° NE 17:28:36 10° ESE
STARLINK-78 4.3 17:20:35 10° W 17:24:28 46° N 17:28:22 10° ENE
Cosmos 2242 Rocket 3.6 17:20:19 10° N 17:24:52 65° ENE 17:29:24 10° SSE
STARLINK-1037 3.7 17:21:43 10° WSW 17:25:51 78° NNW 17:30:01 10° ENE
STARLINK-1019 4.0 17:22:35 10° W 17:25:52 41° N 17:29:10 10° ENE
USA 229 DEB 4.3 17:19:32 10° WSW 17:26:02 58° NW 17:32:56 10° NE
USA 229 4.2 17:19:39 10° WSW 17:26:09 59° NW 17:33:02 10° NE
STARLINK-57 4.3 17:22:21 10° W 17:26:14 45° N 17:30:07 10° ENE
Cosmos 1763 Rocket 4.4 17:22:40 10° SSE 17:27:04 28° E 17:31:30 10° NE
Cosmos 1703 Rocket 3.9 17:22:52 10° N 17:27:10 44° ENE 17:31:27 10° SSE
STARLINK-1056 4.3 17:23:55 10° SSW 17:27:46 39° SE 17:31:26 11° ENE
STARLINK-49 4.3 17:23:54 10° W 17:27:47 45° N 17:31:39 10° ENE
STARLINK-1012 4.1 17:24:49 10° W 17:28:06 40° N 17:31:21 10° ENE
SJ 16-02 1.7 17:23:53 10° N 17:28:06 42° ENE 17:32:16 10° SE
CENTAUR R/B 4.0 17:21:55 10° NW 17:28:26 31° NNE 17:35:27 11° E
STARLINK-27 4.3 17:25:33 10° W 17:29:25 45° N 17:33:13 11° ENE
STARLINK-48 4.0 17:25:42 10° WNW 17:29:29 46° N 17:32:51 12° E
ARGOS 4.2 17:25:34 10° ESE 17:29:53 25° ENE 17:34:15 10° N
Meteor 1-25 Rocket 4.4 17:25:03 10° SSE 17:30:27 48° E 17:35:49 10° NNE
STARLINK-1059 3.8 17:26:48 10° WSW 17:30:56 75° NNW 17:35:01 10° ENE
Aureole 2 Rocket 4.2 17:28:49 10° WSW 17:31:05 24° WNW 17:33:26 10° N
STARLINK-74 4.3 17:27:14 10° W 17:31:07 44° N 17:34:50 11° ENE
Okean-O 4.0 17:27:23 10° S 17:31:39 45° W 17:35:55 10° NNW
STARLINK-1026 4.1 17:29:15 10° W 17:32:32 40° N 17:35:36 11° ENE
STARLINK-1054 4.2 17:28:48 10° SSW 17:32:42 42° SE 17:36:12 12° ENE
STARLINK-39 4.3 17:28:53 10° W 17:32:46 44° N 17:36:24 11° ENE
NOSS 3-1 (A) 3.7 17:27:30 10° SW 17:33:06 70° NW 17:39:43 10° NE
STARLINK-1023 4.0 17:30:07 10° WNW 17:33:14 38° N 17:36:06 12° ENE
USA 186 3.4 17:34:04 13° ENE 17:34:11 13° ENE 17:35:31 10° NE
STARLINK-31 4.3 17:30:36 10° W 17:34:28 44° N 17:38:02 12° ENE
STARLINK-1013 4.1 17:31:30 10° W 17:34:47 39° N 17:37:46 12° ENE
Cosmos 1939 Rocket 2.9 17:31:00 10° SSE 17:35:09 81° ENE 17:39:19 10° N
STARLINK-61 4.3 17:31:30 10° WNW 17:35:14 41° N 17:38:30 13° ENE
STARLINK-1057 3.8 17:31:47 10° WSW 17:35:56 71° NNW 17:39:48 12° ENE
STARLINK-26 3.8 17:32:58 10° WNW 17:36:18 42° N 17:38:56 15° E
STARLINK-69 4.3 17:32:27 10° WNW 17:36:20 43° N 17:39:48 12° ENE
STARLINK-1009 4.1 17:33:44 10° WNW 17:37:01 39° N 17:39:54 13° ENE
Cosmos 1869 Rocket 4.4 17:33:17 10° SSE 17:37:02 28° E 17:40:45 10° NNE
STARLINK-1062 4.1 17:33:43 10° SW 17:37:39 45° SE 17:40:59 14° ENE
STARLINK-21 4.3 17:33:56 10° W 17:37:48 44° N 17:41:14 13° ENE
CSL-04 Rocket 3.7 17:32:20 10° SSE 17:37:52 86° ENE 17:43:20 10° NNW
STARLINK-1015 4.1 17:36:00 10° WNW 17:39:17 39° N 17:42:04 13° ENE
STARLINK-45 4.3 17:35:51 10° WNW 17:39:42 43° N 17:43:01 13° ENE
STARLINK-1034 3.8 17:36:46 10° WSW 17:40:54 68° NNW 17:44:34 13° ENE
STARLINK-70 4.3 17:37:23 10° WNW 17:41:15 43° N 17:44:31 14° ENE
STARLINK-1053 4.0 17:38:39 10° SW 17:42:38 48° SE 17:45:47 15° ENE
STARLINK-76 4.3 17:38:56 10° WNW 17:42:47 43° N 17:45:59 14° ENE
CZ-2D R/B 3.3 17:38:57 10° SSE 17:42:51 86° W 17:46:46 10° NNW
ATLAS 3B R/B 4.0 17:37:58 10° NW 17:43:15 24° NNE 17:48:15 11° ENE
STARLINK-1014 4.1 17:41:01 10° W 17:44:23 40° N 17:47:04 14° ENE
STARLINK-23 4.3 17:40:36 10° WNW 17:44:27 43° N 17:47:34 15° ENE
CZ-2C R/B 4.0 17:40:12 10° SE 17:45:16 33° ENE 17:50:12 10° N
STARLINK-1068 3.9 17:41:46 10° WSW 17:45:53 65° NNW 17:49:21 14° ENE
STARLINK-80 3.6 17:42:14 10° WNW 17:46:01 60° NNE 17:48:42 18° E
STARLINK-32 4.3 17:42:14 10° WNW 17:46:06 43° N 17:49:08 15° ENE
CZ-4 R/B 2.4 17:42:25 10° S 17:46:29 51° W 17:50:31 10° NNW
STARLINK-1061 3.9 17:43:33 10° SW 17:47:34 52° SE 17:50:33 17° ENE
STARLINK-40 4.3 17:43:55 10° WNW 17:47:46 43° N 17:50:45 16° ENE
STARLINK-44 4.3 17:45:35 10° WNW 17:49:26 42° N 17:52:20 16° ENE
Lacrosse 4 Rocket 4.2 17:47:34 10° WNW 17:49:36 13° NNW 17:51:40 10° N
YAOGAN 1 3.2 17:46:22 10° S 17:50:39 61° W 17:54:58 10° NNW
CRYOSAT 2 4.4 17:46:16 10° S 17:51:11 87° W 17:56:08 10° N
STARLINK-37 4.3 17:47:22 10° WNW 17:51:14 42° N 17:54:02 17° ENE
STARLINK-1067 3.8 17:48:30 10° SW 17:52:33 56° SE 17:55:19 19° ENE
STARLINK-36 4.3 17:48:53 10° WNW 17:52:44 42° N 17:55:30 17° ENE
STARLINK-64 4.2 17:49:33 10° WNW 17:52:57 38° N 17:55:09 19° ENE
Cosmos 540 Rocket 4.5 17:49:32 10° SSE 17:53:29 23° E 17:57:28 10° NE
Ariane Rocket 3.1 17:48:35 10° SE 17:53:33 56° ENE 17:58:32 10° N
STARLINK-33 3.9 17:51:11 10° WNW 17:54:17 37° N 17:56:01 21° ENE
STARLINK-68 4.3 17:50:47 10° WNW 17:54:38 42° N 17:57:17 18° ENE
Okean 3 4.4 17:51:23 10° NNE 17:54:58 26° ENE 17:56:53 19° ESE
SJ-6B 3.8 17:53:43 20° E 17:55:10 25° ENE 17:58:21 10° N
Cosmos 489 Rocket 4.5 17:49:05 10° S 17:55:19 63° ESE 18:01:33 10° NNE
STARLINK-55 3.9 17:52:34 10° WNW 17:55:40 37° N 17:57:20 22° ENE
STARLINK-1060 4.0 17:51:46 10° W 17:55:52 60° NNW 17:58:55 17° ENE
STARLINK-63 4.3 17:52:20 10° WNW 17:56:11 42° N 17:58:46 19° ENE
USA 116 4.2 17:52:13 10° N 17:56:24 78° WNW 18:01:06 10° SSW
STARLINK-66 3.9 17:53:28 10° WNW 17:56:34 37° N 17:58:12 22° ENE
STARLINK-28 3.9 17:54:11 10° WNW 17:57:17 38° N 17:58:52 23° ENE
STARLINK-1058 3.7 17:53:25 10° SW 17:57:29 60° SSE 18:00:06 21° ENE
NOSS 2-3 (C) 4.5 17:53:11 10° WSW 17:57:34 55° NW 18:02:53 10° NE
FREGAT/IRIS 3.3 17:57:40 27° ENE 17:57:40 27° ENE 18:00:05 10° N
STARLINK-35 4.3 17:53:53 10° WNW 17:57:44 42° N 18:00:16 19° ENE
Cosmos 990 Rocket 3.9 17:52:45 10° NNW 17:57:56 85° ENE 18:03:05 10° SSE
STARLINK-42 3.9 17:55:03 10° WNW 17:58:05 36° N 17:59:38 22° ENE
STARLINK-51 4.3 17:55:33 10° WNW 17:59:24 42° N 18:01:52 20° ENE
STARLINK-1029 4.1 17:57:10 10° WNW 18:00:08 35° N 18:01:47 20° NE
STARLINK-1030 4.0 17:56:48 10° W 18:00:53 57° NNW 18:03:43 19° ENE
STARLINK-1007 4.1 17:57:45 10° WNW 18:00:54 36° N 18:02:38 21° NE
STARLINK-30 4.3 17:57:13 10° WNW 18:01:04 42° N 18:03:27 20° ENE
Cosmos 1943 Rocket 3.8 17:56:08 10° WSW 18:01:09 34° NW 18:06:11 10° NNE
Cosmos 1933 Rocket 4.0 17:57:27 10° SSW 18:01:50 66° WNW 18:06:12 10° N
Cosmos 2297 Rocket 3.1 17:57:16 10° NNW 18:02:18 31° NE 18:04:59 21° E
STARLINK-1043 3.6 17:58:22 10° SW 18:02:27 64° SSE 18:04:53 23° ENE
STARLINK-72 4.3 17:58:54 10° WNW 18:02:45 42° N 18:05:03 21° ENE
SJ-11-01 4.2 17:59:29 10° SSE 18:04:06 64° ENE 18:08:44 10° N
STARLINK-50 4.3 18:00:34 10° WNW 18:04:24 42° N 18:06:39 22° ENE
Nadezhda 4 Rocket 4.0 17:58:56 10° N 18:05:11 59° ENE 18:11:25 10° SSE
STARLINK-1020 4.1 18:01:47 10° W 18:05:52 55° NNW 18:08:30 21° ENE
STARLINK-59 4.3 18:02:19 10° WNW 18:06:11 42° N 18:08:19 22° ENE
STARLINK-1065 3.6 18:03:08 10° SW 18:07:15 68° SSE 18:09:29 26° ENE
STARLINK-56 4.3 18:03:53 10° WNW 18:07:45 42° N 18:09:50 23° ENE
IRS-1A Rocket 4.1 18:03:45 10° SSE 18:09:13 71° ENE 18:14:44 10° NNW
STARLINK-73 4.3 18:05:33 10° WNW 18:09:24 42° N 18:11:25 24° ENE
Cosmos 1346 Rocket 4.1 18:05:57 10° SSW 18:09:44 43° WNW 18:13:31 10° N
STARLINK-1010 4.1 18:07:10 10° WNW 18:10:13 35° N 18:11:28 25° NE
STARLINK-1052 4.1 18:06:48 10° W 18:10:52 54° NNW 18:13:16 23° NE
STARLINK-38 4.3 18:07:14 10° WNW 18:11:05 42° N 18:13:02 24° ENE
STARLINK-1063 3.5 18:08:15 10° SW 18:12:22 73° SSE 18:14:25 29° ENE
Cosmos 1464 Rocket 4.0 18:06:10 10° S 18:12:32 82° E 18:18:57 10° N
Cosmos 1937 Rocket 3.4 18:07:25 10° NNW 18:12:43 83° ENE 18:17:54 10° SSE
STARLINK-65 4.3 18:08:53 10° WNW 18:12:44 42° N 18:14:36 25° ENE
STARLINK-1047 4.2 18:09:07 10° W 18:13:12 53° NNW 18:15:33 23° NE
STARLINK-53 4.3 18:10:39 10° WNW 18:14:30 42° N 18:16:17 26° ENE
Cosmos 1515 3.7 18:11:32 10° N 18:15:15 52° ENE 18:17:27 22° SE
ADEOS Rocket 3.6 18:07:26 10° NNE 18:15:18 88° WNW 18:22:54 10° SSW
MONITOR-E 4.1 18:16:07 46° NE 18:16:07 46° NE 18:18:24 10° N
Genesis I 3.3 18:11:58 10° NNW 18:15:48 55° NE 18:17:05 35° ESE
STARLINK-1064 3.5 18:13:13 10° WSW 18:17:21 77° SSE 18:19:12 32° ENE
USA 238 DEB 4.0 18:10:27 10° NW 18:17:27 55° NE 18:21:52 24° ESE
USA 238 4.0 18:10:34 10° NW 18:17:33 55° NE 18:21:56 25° ESE
Meteor 2-11 Rocket 4.4 18:12:43 10° S 18:18:49 87° E 18:24:57 10° N
Cosmos 1263 4.5 18:15:10 10° N 18:19:19 69° E 18:21:35 20° SSE
STARLINK-1033 4.2 18:16:49 10° W 18:20:51 51° NNW 18:22:50 27° NE
Meteor 1-20 Rocket 4.5 18:15:48 10° SSW 18:21:16 69° WNW 18:26:52 10° N
Cosmos 2227 Rocket 2.8 18:16:19 10° NNW 18:21:33 37° NE 18:23:25 29° E
STARLINK-1041 3.5 18:18:11 10° WSW 18:22:19 82° SSE 18:23:59 35° ENE
SL-24 DEB 4.2 18:20:03 10° SSE 18:24:39 59° E 18:29:13 10° N
Cosmos 1656 Rocket 4.5 18:20:01 10° SW 18:25:25 52° NW 18:30:55 10° NNE
Cosmos 2221 Rocket 3.6 18:21:09 10° N 18:25:38 60° ENE 18:28:33 21° SSE
STARLINK-1038 3.5 18:23:08 10° WSW 18:27:17 87° SSE 18:28:45 39° ENE
H-2A R/B 2.1 18:25:14 10° SSE 18:30:38 80° ENE 18:36:08 10° NNW
STARLINK-1024 4.3 18:26:51 10° W 18:30:52 48° N 18:32:25 31° NE
STARLINK-1046 3.5 18:28:08 10° WSW 18:32:16 89° NW 18:33:33 44° ENE
STARLINK 1040 3.9 18:30:20 10° WNW 18:32:39 31° N 18:32:39 31° N
Cosmos 2034 Rocket 3.9 18:28:55 10° S 18:35:05 86° E 18:41:17 10° N
STARLINK-22 3.7 18:33:03 10° WNW 18:36:13 42° NNE 18:36:16 42° NNE
Cosmos 372 Rocket 4.0 18:32:03 10° NNW 18:37:16 61° ENE 18:39:10 37° SE
STARLINK-1039 3.5 18:33:08 10° WSW 18:37:17 84° NNW 18:38:22 49° ENE
STARLINK-41 3.7 18:34:33 10° WNW 18:37:41 43° N 18:37:41 43° N
Cosmos 220 Rocket 4.1 18:34:04 10° SSW 18:38:22 75° WNW 18:42:39 10° NNE
STARLINK-1016 4.0 18:35:21 10° WNW 18:38:33 37° N 18:38:43 37° NNE
STARLINK-1008 4.0 18:37:01 10° WNW 18:40:14 38° N 18:40:20 38° N
STARLINK-1032 4.3 18:36:52 10° W 18:40:53 46° N 18:41:59 36° NE
STARLINK-75 3.6 18:38:53 10° WNW 18:41:58 47° N 18:41:58 47° N
STARLINK-1045 3.6 18:38:07 10° WSW 18:42:15 80° NNW 18:43:08 54° NE
STARLINK-58 3.8 18:39:51 10° WNW 18:43:17 44° NNE 18:43:17 44° NNE
STARLINK-24 4.1 18:39:28 10° WNW 18:43:21 45° N 18:43:51 43° NNE
Resurs 1-3 4.0 18:44:36 45° NE 18:44:36 45° NE 18:48:29 10° N
STARLINK-1025 4.0 18:41:11 10° WNW 18:44:21 38° N 18:44:21 38° N
STARLINK-62 3.8 18:41:33 10° WNW 18:44:55 45° N 18:44:55 45° N
STARLINK-1011 4.3 18:41:52 10° W 18:45:52 45° N 18:46:45 39° NNE
STARLINK-1017 4.1 18:43:16 10° WNW 18:46:21 38° N 18:46:21 38° N
STARLINK-34 3.8 18:43:10 10° WNW 18:46:29 46° N 18:46:29 46° N
STARLINK-1050 3.7 18:43:09 10° WSW 18:47:17 75° NNW 18:47:59 58° NE
Lacrosse 5 rocket 1.8 18:43:08 10° NW 18:47:39 55° NNE 18:48:11 51° ENE
STARLINK-1035 4.4 18:43:32 10° W 18:47:39 45° N 18:48:33 39° NNE
STARLINK-1031 4.3 18:43:56 10° WNW 18:47:53 44° N 18:48:37 39° NNE
MetOp-A 4.1 18:46:49 42° SE 18:48:21 59° ENE 18:53:37 10° N
Cosmos 2219 3.1 18:44:14 10° NNW 18:50:01 79° ENE 18:52:15 39° SE
STARLINK-1036 4.3 18:46:53 10° W 18:50:52 45° N 18:51:32 41° NNE
STARLINK-1055 3.7 18:48:08 10° WSW 18:52:16 72° NNW 18:52:45 63° NNE
STARLINK-1048 4.2 18:49:38 10° WNW 18:52:29 38° NNW 18:52:29 38° NNW
Cosmos 1092 Rocket 3.9 18:46:41 10° N 18:53:04 83° E 18:58:47 13° S
STARLINK-81 4.1 18:50:12 10° WNW 18:54:06 47° N 18:54:10 47° NNE
Lacrosse 5 1.7 18:49:09 10° SW 18:54:15 88° SE 18:55:38 50° NE
STARLINK-1049 4.3 18:51:46 10° WNW 18:54:32 37° NNW 18:54:32 37° NNW
STARLINK-1044 4.3 18:51:54 10° WNW 18:55:53 44° N 18:56:19 42° NNE
STARLINK-54 4.1 18:52:03 10° WNW 18:55:56 48° N 18:55:56 48° N
Meteor 2-4 Rocket 4.0 18:51:11 10° NNW 18:57:07 75° W 19:03:02 10° S
STARLINK-1051 4.3 18:53:57 10° WNW 18:56:37 37° NNW 18:56:37 37° NNW
STARLINK-1022 3.7 18:53:07 10° WSW 18:57:15 68° NNW 18:57:32 65° N
STARLINK-77 4.1 18:53:31 10° WNW 18:57:20 47° N 18:57:20 47° N
USA 234 3.9 18:55:21 30° ENE 18:58:05 45° N 19:04:14 10° WNW
STARLINK-1027 4.4 18:54:17 10° WNW 18:58:22 44° N 18:58:47 43° NNE
Cosmos 1634 Rocket 4.0 18:52:36 10° S 18:58:48 61° E 19:05:03 10° NNE
STARLINK-1028 4.4 18:55:36 10° WNW 18:58:14 36° NNW 18:58:14 36° NNW
STARLINK-25 4.1 18:55:10 10° WNW 18:58:55 47° N 18:58:55 47° N
Cosmos 2263 Rocket 4.1 18:56:24 10° N 18:59:45 16° NE 18:59:45 16° NE
GP-B 4.1 19:01:33 34° NNE 19:01:33 34° NNE 19:04:12 10° N
CZ-2C R/B 4.4 18:55:41 10° NNE 18:57:07 17° NE 18:57:07 17° NE
STARLINK-71 4.1 18:57:02 10° WNW 19:00:42 49° N 19:00:42 49° N
STARLINK-1021 4.4 18:57:48 10° WNW 19:00:21 35° NNW 19:00:21 35° NNW
Gbstr 26 Del rocket 3.2 18:57:15 10° WSW 19:01:29 73° NNW 19:02:07 63° NE
Cosmos 1814 Rocket 3.8 18:56:51 10° SSW 19:01:59 85° ESE 19:07:10 10° NNE
STARLINK-1042 3.8 18:58:08 10° WSW 19:02:15 65° NNW 19:02:20 65° NNW
STARLINK-79 4.2 18:58:29 10° WNW 19:02:07 47° N 19:02:07 47° N
STARLINK-78 4.2 19:00:10 10° WNW 19:03:43 47° N 19:03:43 47° N
USA 186 3.9 19:05:54 22° WNW 19:05:54 22° WNW 19:07:28 10° NNW
Cosmos 2195 Rocket 4.3 18:58:48 10° N 19:04:59 86° E 19:08:27 28° S
SWAS 4.4 19:00:48 10° NNW 19:04:48 77° NNW 19:04:48 77° NNW
Meteor 2-13 Rocket 4.5 18:59:45 10° N 19:05:40 52° ENE 19:05:45 52° ENE
STARLINK-1037 4.4 19:01:49 10° WNW 19:05:48 43° N 19:05:48 43° N
STARLINK-57 4.2 19:01:55 10° WNW 19:05:23 47° NNW 19:05:23 47° NNW
SJ 16-02 3.7 19:02:59 10° NW 19:06:25 23° W 19:09:50 10° SSW
STARLINK-1056 3.9 19:03:08 10° W 19:07:06 62° NNW 19:07:06 62° NNW
STARLINK-49 4.3 19:03:28 10° WNW 19:06:53 46° NNW 19:06:53 46° NNW
NOSS 3-2 (A) 3.9 19:00:17 10° NW 19:07:44 85° NE 19:10:56 42° SE
Cosmos 841 Rocket 3.5 19:02:55 10° SSW 19:08:03 78° WNW 19:13:17 10° NNE
STARLINK-48 4.0 19:04:24 10° WNW 19:07:38 56° W 19:07:38 56° W
Cosmos 1763 Rocket 4.5 19:03:35 10° SW 19:08:38 47° WNW 19:13:47 10° NNE
STARLINK-27 4.3 19:05:06 10° WNW 19:08:28 46° NNW 19:08:28 46° NNW
ARGOS 3.7 19:04:37 11° S 19:09:46 59° W 19:15:10 10° NNW
Resurs 01 Rocket 2.5 19:11:23 39° NNE 19:11:23 39° NNE 19:14:19 10° N
Cosmos 2298 Rocket 4.1 19:05:22 10° NNW 19:10:43 78° WSW 19:12:02 52° S
STARLINK-74 4.4 19:06:47 10° WNW 19:10:04 45° NNW 19:10:04 45° NNW
STARLINK-1059 4.5 19:06:55 10° WNW 19:10:40 43° NNW 19:10:40 43° NNW
NOSS 3-2 (C) 4.0 19:04:13 10° NW 19:11:35 69° NE 19:13:51 49° ESE
STARLINK-1054 4.1 19:08:07 10° W 19:11:52 58° NW 19:11:52 58° NW
STARLINK-39 4.4 19:08:25 10° WNW 19:11:38 45° NNW 19:11:38 45° NNW
STARLINK-31 4.5 19:10:07 10° WNW 19:13:16 44° NNW 19:13:16 44° NNW
STARLINK-61 4.4 19:10:28 10° WNW 19:13:23 46° NW 19:13:23 46° NW
ARGOS Delta rocket 4.2 19:13:10 38° SSW 19:14:35 56° W 19:19:03 10° NNW
SPOT 3 Rocket 3.7 19:13:10 39° S 19:15:05 72° WSW 19:20:20 10° NNW
Cosmos 2208 Rocket 4.4 19:09:52 10° SSW 19:15:14 65° WNW 19:20:34 10° NNE
Meteor 1-11 Rocket 3.5 19:10:00 10° S 19:15:34 78° E 19:21:06 10° NNE
STARLINK-1062 4.3 19:13:07 10° W 19:16:39 52° NW 19:16:39 52° NW
CENTAUR R/B 3.1 19:12:46 10° NW 19:20:36 67° NE 19:22:39 52° E
CZ-2C R/B 4.2 19:19:23 10° S 19:24:57 47° W 19:30:23 10° NNW
Cosmos 2150 Rocket 4.4 19:22:05 10° NNW 19:27:27 63° WSW 19:28:23 54° SSW
Cosmos 1125 Rocket 3.7 19:27:22 10° NNW 19:32:02 69° NNW 19:32:02 69° NNW
Cosmos 540 Rocket 4.1 19:29:41 10° SW 19:34:42 54° WNW 19:39:47 10° NNE
ATLAS 3B R/B 2.9 19:28:56 10° NW 19:35:29 52° NE 19:35:31 52° NE
Cosmos 1066 Rocket 4.4 19:36:48 10° NNW 19:42:00 72° NNW 19:42:00 72° NNW
Cosmos 2297 Rocket 2.6 19:41:07 10° NW 19:46:40 55° WSW 19:46:50 55° WSW
Terra 4.4 19:57:30 11° N 19:57:30 11° N 19:57:42 10° N
ATLAS 2AS CENTAUR R/B 4.3 19:50:58 10° SSW 19:53:45 24° SSW 19:53:45 24° SSW
Cosmos 2227 Rocket 3.1 20:00:22 10° NW 20:05:17 43° W 20:05:17 43° W
USA 238 DEB 4.5 20:01:37 10° NW 20:08:25 46° WSW 20:09:21 44° SW
USA 238 4.5 20:01:43 10° NW 20:08:31 47° WSW 20:09:24 45° SW
Lacrosse 5 rocket 4.2 20:22:31 10° WNW 20:23:51 18° WNW 20:23:51 18° WNW
Lacrosse 5 4.2 20:32:58 10° W 20:34:52 21° WNW 20:34:52 21° WNW
USA 234 4.0 20:42:41 48° NW 20:42:41 48° NW 20:47:12 10° NW
Cosmos 2263 Rocket 4.2 20:39:19 10° NNW 20:41:27 23° NNW 20:41:27 23° NNW
CENTAUR R/B 4.1 21:03:45 10° NW 21:09:51 40° W 21:09:51 40° W
ATLAS 3B R/B 4.4 21:19:46 10° NW 21:22:47 27° WNW 21:22:47 27° WNW
